Wetbulb
52.17 52.36 52.30 52.36 52.42 52.35 51.98 51.71 51.94 52.29 52.35 52.62 53.24 53.58 53.72 53.55 53.47 53.11 56.45 56.08 54.61 55.56 56.92 58.03 58.66 58.33 58.94 59.27 56.09 59.36 57.82 58.24 57.93 54.48 53.74 53.72 53.72 55.16 54.61 55.98 54.93 54.00 52.76 51.84 53.01 50.18 47.70 59.57 58.99 54.47 59.84 62.16 61.57 62.22
52.03 52.07 52.03 52.11 52.07 52.19 51.79 52.36 52.63 52.33 52.41 52.52 52.95 53.29 53.35 53.20 52.89 52.75 54.77 56.12 55.56 53.42 54.81 59.19 59.95 60.99 60.51 60.85 59.41 59.96 58.52 57.75 58.78 56.54 57.54 57.80 55.35 56.50 55.50 51.28 59.35 53.33 56.13 53.74 54.44 54.59 60.89 61.64 60.83 62.07 62.97 62.23 62.20 62.62
51.86 51.89 51.95 51.93 51.93 52.18 52.21 51.90 52.61 52.96 52.91 53.30 52.97 53.16 53.39 52.98 52.49 51.73 52.74 54.05 54.47 53.16 54.83 56.41 56.75 60.05 60.58 59.78 62.27 55.81 58.15 60.21 59.98 63.07 59.90 58.61 56.04 58.35 53.37 54.72 55.93 58.55 60.42 56.19 56.12 58.13 59.27 60.56 61.76 62.01 63.12 63.05 63.57 63.97
51.52 51.60 51.73 51.75 51.91 52.29 52.43 52.45 52.22 52.50 53.18 53.39 53.00 52.93 52.79 52.84 52.37 51.67 51.32 54.68 53.58 52.94 50.64 54.99 59.35 58.41 61.96 61.55 60.26 59.80 58.97 59.79 59.75 60.32 56.86 54.97 53.74 58.76 55.26 56.33 56.49 58.05 59.50 57.61 57.00 59.26 60.00 60.24 60.63 61.67 62.81 63.70 63.88 64.39
51.28 51.36 51.66 51.66 51.94 52.14 52.31 52.37 52.50 52.89 53.15 52.54 52.36 52.89 52.56 52.47 52.04 52.34 54.27 54.52 54.62 52.87 51.47 52.90 57.66 59.74 60.95 60.78 58.85 60.92 58.72 57.33 56.38 55.02 54.25 53.13 55.76 55.86 56.55 55.80 53.78 56.43 55.94 53.79 52.66 58.44 57.48 58.09 60.98 63.02 62.90 62.83 63.64 63.46
51.26 51.37 51.64 51.61 51.74 51.94 51.98 52.30 52.13 52.51 52.32 52.46 52.64 52.51 52.12 52.11 51.97 53.93 54.05 57.77 57.89 57.83 51.94 52.64 59.35 59.32 60.22 60.74 58.68 58.74 59.60 57.24 55.92 55.20 55.08 56.85 58.93 56.47 52.31 52.03 57.04 58.36 59.14 59.28 57.43 59.74 60.18 61.36 62.14 63.05 62.48 63.25 64.19 63.98
50.98 51.18 51.26 51.34 51.63 51.96 52.16 51.76 51.31 51.46 52.17 52.16 51.87 51.93 51.88 51.73 53.79 53.14 52.64 54.23 54.08 57.26 54.81 52.42 54.10 58.05 58.10 59.94 60.86 58.89 58.93 58.29 56.91 55.15 53.74 55.18 56.84 56.33 54.22 51.25 56.84 58.60 59.87 60.58 61.63 61.52 59.98 61.40 61.21 63.61 63.95 64.52 63.10 64.37
50.73 50.96 51.15 51.37 51.58 51.77 51.75 51.12 51.08 51.49 51.91 51.92 51.56 51.66 51.20 51.36 51.21 54.60 56.89 53.90 54.14 54.75 56.01 51.41 52.34 54.31 59.57 58.81 57.88 60.49 56.53 56.64 56.76 55.97 57.26 56.03 57.68 57.31 52.69 56.50 58.10 59.37 60.35 61.03 62.22 62.94 62.40 62.83 63.17 63.18 63.86 63.82 63.15 63.26
50.85 51.01 51.09 51.36 51.49 51.71 51.02 51.04 51.10 51.16 51.35 51.51 51.77 51.28 54.42 55.27 57.57 56.02 53.69 53.70 56.81 54.83 52.14 53.80 50.17 50.30 57.18 57.43 58.22 58.19 57.99 53.13 57.34 54.14 55.18 57.19 55.03 52.85 55.98 57.82 58.88 60.35 60.46 60.57 62.10 62.84 62.48 61.57 61.72 63.34 63.82 63.04 62.64 62.48
50.76 51.20 51.21 51.35 51.32 51.55 51.05 51.31 51.14 51.37 50.61 51.43 54.21 54.46 55.01 55.57 52.78 54.21 54.77 53.30 53.73 55.57 55.01 50.69 55.05 49.70 54.87 54.30 52.85 56.28 57.89 54.12 52.01 55.10 59.02 55.01 53.72 57.96 59.28 60.78 61.56 61.75 61.97 61.96 60.01 59.62 60.44 60.35 61.14 62.28 63.17 63.67 63.30 63.46
50.51 50.95 50.86 51.15 51.28 51.52 51.57 51.87 51.72 50.85 51.79 53.24 50.18 50.73 53.38 54.68 56.66 56.14 52.67 51.41 53.22 50.64 54.34 55.06 54.80 52.91 60.04 52.63 52.45 54.50 54.34 58.14 50.98 54.17 54.06 53.49 53.33 57.79 61.19 61.49 62.21 61.85 62.52 62.13 62.10 62.35 62.32 61.45 61.04 61.67 63.01 64.37 64.77 64.58
50.41 50.65 50.72 51.00 51.16 51.13 51.38 51.73 51.66 51.90 50.37 49.62 49.12 50.59 52.15 54.02 53.86 49.45 50.46 51.98 50.24 50.04 54.99 53.47 55.04 55.39 57.63 58.44 52.84 53.13 50.64 56.12 49.91 57.48 54.23 50.87 56.55 59.81 60.35 60.45 60.87 61.38 61.44 61.35 62.90 63.32 63.83 63.69 62.60 62.72 63.66 64.69 65.51 65.96
50.39 50.65 50.71 50.73 51.05 50.92 51.49 51.88 52.07 51.92 51.28 51.16 47.76 47.36 49.54 50.83 41.74 44.31 43.50 47.72 49.72 53.91 56.10 54.06 52.56 55.71 57.70 56.18 53.99 51.39 49.79 50.21 58.55 52.54 50.51 53.56 58.68 59.77 61.27 61.63 60.73 61.54 61.43 62.31 63.30 64.20 64.28 63.95 64.59 64.74 64.56 65.72 66.30 66.39
50.21 50.39 50.49 50.66 51.24 51.56 52.08 52.04 52.18 52.10 48.89 48.30 46.27 37.38 44.83 44.86 47.34 50.32 48.49 49.39 53.05 54.00 53.37 53.52 52.85 54.72 57.15 53.35 54.10 50.21 54.11 55.21 48.85 47.24 49.08 55.46 59.59 60.90 61.64 61.21 60.62 60.45 61.51 62.60 63.28 63.66 63.22 63.59 63.54 64.38 65.28 66.22 66.19 65.82
50.36 50.61 50.79 51.27 51.74 51.60 51.95 51.89 52.01 52.52 47.49 44.46 45.10 38.89 45.36 50.97 51.41 51.18 53.35 52.29 54.42 54.39 53.77 51.76 53.02 54.29 54.22 52.49 51.40 51.55 49.24 46.84 49.69 50.14 54.20 58.75 61.25 61.72 61.24 61.49 61.45 61.41 61.78 62.32 63.00 62.94 63.09 63.82 63.92 65.44 65.93 66.69 66.41 65.49
50.54 50.72 52.34 51.86 51.72 51.94 51.40 52.96 54.18 52.85 46.77 43.97 42.81 43.35 47.74 47.27 48.85 51.16 51.61 50.92 53.86 53.74 52.81 53.27 49.05 50.05 50.86 51.82 49.75 48.37 47.42 46.80 49.98 53.39 58.19 60.06 61.12 61.70 62.10 62.09 62.52 62.81 63.15 62.90 62.81 62.92 63.44 64.27 63.80 63.79 65.01 65.43 65.52 65.30
50.46 50.53 51.70 51.58 51.68 51.24 51.65 51.53 50.26 46.60 44.17 42.14 43.69 49.33 48.19 47.96 47.62 49.18 50.75 50.94 54.90 50.76 49.15 51.90 48.23 47.54 53.51 45.04 46.79 52.04 49.64 51.24 52.85 53.92 58.52 61.58 62.16 63.01 63.81 63.29 63.46 63.64 63.51 63.73 63.47 63.16 63.67 64.91 65.27 64.69 63.90 64.51 64.36 65.92
49.42 51.43 52.01 51.62 51.66 51.57 51.10 50.65 47.96 44.89 42.08 43.38 43.44 48.82 50.37 49.93 49.15 50.11 51.69 52.82 51.65 51.39 52.23 49.39 50.42 48.54 47.83 45.12 47.83 51.36 53.89 53.98 55.45 56.87 56.83 60.33 62.53 63.87 63.89 63.38 63.97 63.88 63.75 63.72 63.61 63.55 64.26 64.15 63.84 63.64 64.60 64.68 65.09 65.28
51.01 52.46 52.07 51.88 51.97 50.03 46.97 47.48 47.64 41.77 43.05 46.41 48.28 49.63 49.87 50.30 52.03 52.30 52.37 52.96 53.46 53.66 51.53 51.86 49.90 48.91 50.50 52.73 52.62 54.06 55.06 55.11 54.85 57.41 59.02 62.72 64.34 63.93 64.11 64.10 64.16 64.25 63.98 63.90 63.53 62.69 62.09 63.50 63.93 64.28 64.08 64.45 63.50 64.50
51.48 51.66 51.93 52.06 52.12 47.96 45.15 45.51 48.44 43.84 42.17 47.37 48.91 48.92 49.79 49.60 51.87 52.25 52.62 52.88 52.15 51.19 48.62 47.90 50.55 53.62 54.19 55.58 55.82 55.67 55.31 54.93 54.77 55.58 58.23 61.56 60.62 61.59 61.98 62.97 62.50 63.83 63.77 63.95 63.45 54.22 63.01 62.39 64.83 64.01 63.78 63.25 63.40 63.74
51.63 52.97 52.37 52.53 50.29 48.71 46.85 46.55 45.83 46.87 46.73 45.45 49.05 48.29 46.92 49.95 51.34 51.95 52.42 54.16 50.55 49.99 49.40 52.40 55.96 56.02 58.94 59.45 59.26 55.63 54.77 56.10 56.23 56.77 55.82 57.18 60.29 61.58 61.23 62.52 63.21 63.03 62.70 62.49 62.25 61.93 58.34 62.49 63.23 63.74 63.86 63.74 64.49 64.97
51.77 52.23 52.41 50.64 47.91 46.78 46.07 48.66 45.72 47.41 45.44 47.16 46.54 47.69 45.67 46.36 47.96 49.13 53.03 51.31 51.74 52.91 53.57 53.50 54.52 55.59 56.04 57.34 56.75 56.91 58.19 59.35 60.26 59.39 53.24 56.20 58.68 60.29 60.90 62.04 62.42 62.20 62.49 62.40 62.70 62.70 63.08 63.65 64.05 64.06 63.82 64.31 60.80 64.78
51.27 50.76 49.12 48.06 44.34 42.72 43.09 49.06 43.41 45.08 41.83 44.35 47.10 46.27 48.22 49.10 52.53 51.81 49.36 52.30 53.49 57.83 58.39 58.19 58.51 60.10 60.09 60.67 59.54 58.60 60.21 59.37 59.13 59.90 60.80 61.30 62.05 62.57 62.27 62.66 63.13 62.28 61.66 62.56 62.30 63.42 63.56 55.40 61.29 62.67 64.17 64.27 64.28 64.24
50.95 48.05 44.24 42.93 42.93 39.97 45.42 42.29 44.44 43.90 44.71 44.14 46.15 45.75 47.37 50.04 53.78 53.21 48.49 51.10 54.23 57.58 58.89 58.24 57.94 58.09 60.81 61.35 61.69 62.27 62.98 62.45 61.22 61.95 63.45 62.29 61.43 62.07 63.12 63.05 63.55 64.02 63.73 63.94 64.14 63.84 64.10 63.94 56.41 63.74 64.05 63.79 63.90 63.76
41.47 40.19 42.04 37.29 43.98 41.56 39.74 40.67 42.12 42.96 41.38 44.29 44.87 45.43 48.42 52.08 48.05 50.44 47.68 49.55 52.85 54.11 54.58 56.19 56.97 56.67 55.21 59.61 61.94 63.05 63.36 62.18 61.06 62.23 64.14 63.40 63.20 62.65 62.76 63.67 64.50 64.33 64.32 62.82 61.73 61.93 63.25 64.59 64.65 64.24 64.18 64.13 63.72 63.57
37.05 41.32 39.02 41.93 41.74 40.23 41.10 38.84 40.32 42.61 44.14 43.78 45.13 48.57 51.78 49.56 46.76 46.37 48.60 51.92 53.08 55.27 55.34 55.31 55.17 55.37 56.49 58.71 58.68 60.44 60.70 62.56 62.94 61.31 61.50 60.06 61.73 62.76 61.32 60.86 61.21 61.28 63.54 62.87 62.37 61.93 62.24 63.09 63.30 63.79 63.66 62.77 52.73 62.24
36.47 40.25 44.70 48.98 46.38 45.56 43.48 45.83 46.74 45.26 43.89 43.59 45.47 47.63 47.53 43.88 44.05 48.14 54.01 55.11 53.70 55.24 56.75 57.01 56.85 56.45 57.61 58.13 60.23 59.39 59.79 60.91 62.43 62.85 63.85 62.78 63.25 63.09 61.83 60.68 60.61 62.37 63.49 63.91 64.22 63.53 62.77 62.74 63.17 63.66 63.60 63.90 63.46 63.39
41.95 44.55 40.71 44.32 44.55 46.37 42.41 42.18 42.96 43.12 46.12 48.78 47.36 45.36 45.01 44.49 46.38 52.30 53.60 55.21 56.89 55.57 56.25 56.83 57.31 57.73 57.55 57.97 58.97 60.50 59.87 62.25 62.39 64.50 61.98 62.29 63.35 63.95 63.79 63.87 64.13 49.65 62.09 64.47 63.61 64.41 64.23 64.15 63.97 63.53 62.95 62.53 62.57 62.62
42.16 45.41 45.85 42.22 43.29 44.19 45.06 44.48 45.07 49.00 52.65 50.90 46.63 45.55 48.78 53.33 54.72 53.76 55.35 56.91 55.64 54.29 53.16 53.70 54.81 56.64 60.77 61.65 62.22 59.29 58.11 57.70 56.78 56.32 56.49 58.04 59.65 61.32 63.32 63.71 64.08 64.56 65.45 64.62 47.15 53.63 60.68 61.42 62.08 62.76 62.30 60.27 59.72 59.95
43.14 47.36 43.91 43.65 42.33 41.31 46.39 49.03 49.16 51.34 53.53 53.31 53.64 52.04 52.60 54.67 56.90 57.11 57.19 56.42 53.94 52.21 52.97 53.82 54.83 55.54 55.09 57.28 57.23 58.32 59.25 59.13 58.86 57.49 56.12 56.66 59.22 62.01 62.88 62.90 62.40 62.81 63.23 62.99 62.08 60.63 51.50 57.99 54.78 59.17 57.31 56.81 56.10 55.67
47.25 46.54 43.87 43.99 42.86 47.39 49.37 50.22 50.87 51.87 52.36 52.14 53.33 51.59 51.42 53.96 57.03 57.48 56.69 55.75 54.77 53.45 53.92 53.14 55.65 56.64 56.15 56.05 55.88 55.70 55.66 58.39 59.06 59.49 59.26 60.26 62.16 62.19 61.88 61.96 62.18 62.13 61.57 60.68 59.66 57.60 56.94 55.93 55.95 55.42 54.56 53.33 52.31 51.72
45.56 44.47 44.38 42.42 44.35 49.99 51.82 50.30 49.45 50.12 51.52 51.47 51.73 53.11 53.27 53.05 50.67 54.28 53.91 55.02 53.70 53.27 51.30 53.18 55.53 55.93 57.55 57.86 58.44 58.53 46.51 58.81 57.77 55.88 55.77 57.65 61.02 61.64 61.48 61.13 61.13 60.83 60.18 59.36 58.70 57.81 56.71 55.45 54.37 53.97 53.58 52.93 52.98 53.00
45.52 45.71 46.05 45.04 45.53 46.34 49.93 49.29 49.38 49.00 50.19 50.23 51.49 52.66 52.35 50.85 49.29 53.21 55.82 55.00 53.26 53.41 54.62 56.99 58.07 58.86 58.91 58.76 58.82 58.06 52.63 55.69 46.09 38.65 38.55 37.66 37.01 45.91 57.50 57.73 57.32 57.02 57.30 56.70 55.82 55.07 54.24 53.67 53.25 53.01 52.54 52.34 52.20 52.17
MSLP
1026.57 1026.18 1025.78 1025.32 1024.80 1024.28 1023.78 1023.25 1022.71 1022.15 1021.64 1021.10 1020.46 1019.83 1019.27 1018.79 1018.26 1017.45 1015.81 1015.89 1014.89 1012.35 1010.09 1009.50 1009.01 1008.22 1007.76 1007.39 1006.49 1006.75 1007.23 1006.61 1006.13 1005.49 1004.83 1004.13 1003.96 1003.58 1003.87 1003.67 1003.80 1004.11 1004.01 1003.50 1003.71 1003.51 1003.10 1003.62 1004.29 1004.45 1004.24 1004.48 1004.57 1004.99
1026.59 1026.21 1025.81 1025.40 1024.95 1024.46 1023.92 1023.34 1022.79 1022.21 1021.65 1021.13 1020.61 1020.11 1019.64 1019.23 1018.83 1018.19 1016.06 1016.12 1016.18 1014.51 1010.96 1010.57 1009.81 1009.33 1008.94 1008.34 1007.77 1007.26 1006.66 1006.66 1005.72 1005.32 1004.78 1004.44 1004.17 1004.16 1003.99 1003.25 1003.96 1004.15 1003.73 1003.44 1003.62 1003.16 1004.16 1004.32 1004.44 1004.56 1004.72 1004.88 1004.95 1005.06
1026.58 1026.20 1025.80 1025.37 1024.94 1024.45 1023.99 1023.46 1022.94 1022.36 1021.71 1021.16 1020.65 1020.15 1019.74 1019.42 1019.17 1019.02 1017.53 1016.84 1015.74 1013.84 1010.90 1009.87 1008.66 1008.82 1009.02 1009.12 1008.89 1008.18 1007.09 1007.20 1007.11 1006.66 1005.54 1005.00 1004.60 1004.33 1003.59 1003.38 1003.55 1003.48 1004.32 1004.20 1004.07 1003.78 1003.72 1003.89 1004.16 1004.40 1004.73 1004.86 1004.81 1005.05
1026.58 1026.18 1025.77 1025.33 1024.82 1024.31 1023.82 1023.34 1022.82 1022.24 1021.62 1021.16 1020.63 1020.06 1019.61 1019.32 1019.09 1018.95 1018.11 1017.07 1016.71 1014.81 1012.02 1008.61 1008.90 1008.77 1008.99 1008.86 1008.87 1008.64 1008.16 1008.22 1007.93 1007.48 1006.34 1005.42 1004.69 1004.44 1003.98 1003.44 1003.49 1003.49 1004.11 1004.00 1003.77 1003.88 1003.99 1004.14 1004.12 1004.06 1004.36 1004.55 1004.82 1004.92
1026.52 1026.09 1025.62 1025.14 1024.64 1024.15 1023.64 1023.11 1022.57 1021.99 1021.39 1020.84 1020.33 1019.75 1019.26 1018.98 1018.76 1018.40 1017.74 1017.68 1017.46 1016.23 1012.96 1009.84 1008.77 1008.27 1008.50 1008.64 1008.55 1008.59 1008.27 1007.96 1007.65 1007.11 1006.25 1005.28 1004.95 1004.80 1004.74 1004.49 1003.61 1003.60 1003.65 1003.86 1003.22 1003.68 1003.92 1004.11 1004.26 1004.22 1004.47 1004.37 1004.36 1004.69
1026.39 1025.97 1025.53 1025.09 1024.62 1024.09 1023.55 1022.99 1022.42 1021.78 1021.19 1020.58 1019.95 1019.34 1018.78 1018.48 1018.29 1017.40 1016.74 1016.90 1017.01 1016.62 1015.08 1010.87 1008.73 1008.41 1008.39 1008.52 1008.32 1008.11 1007.95 1007.85 1007.54 1006.77 1005.86 1005.29 1005.12 1005.45 1004.20 1003.64 1003.73 1003.80 1003.91 1004.04 1003.86 1004.04 1004.03 1004.30 1004.49 1004.42 1004.32 1004.31 1004.23 1004.43
1026.33 1025.94 1025.53 1025.04 1024.50 1023.97 1023.41 1022.82 1022.21 1021.53 1020.83 1020.12 1019.38 1018.66 1018.02 1017.78 1017.46 1016.98 1017.04 1017.34 1017.47 1016.84 1014.56 1011.43 1008.44 1008.05 1008.45 1008.09 1007.78 1007.83 1007.92 1007.62 1007.41 1006.91 1006.04 1005.33 1004.97 1005.86 1004.41 1003.37 1003.51 1003.44 1003.57 1003.55 1003.91 1004.08 1004.15 1003.99 1003.61 1003.67 1003.77 1003.84 1004.06 1004.05
1026.10 1025.72 1025.34 1024.87 1024.35 1023.84 1023.22 1022.59 1021.93 1021.11 1020.25 1019.50 1018.77 1018.17 1017.76 1017.57 1017.67 1017.02 1017.11 1017.60 1017.65 1016.32 1014.64 1012.02 1009.04 1007.92 1008.23 1007.10 1006.77 1007.49 1007.23 1007.40 1006.82 1005.78 1005.16 1004.73 1004.50 1004.99 1003.58 1003.36 1003.31 1003.24 1003.41 1003.72 1003.97 1004.12 1004.02 1003.87 1003.91 1003.78 1003.63 1003.62 1003.48 1003.32
1025.92 1025.53 1025.16 1024.72 1024.18 1023.70 1023.11 1022.34 1021.56 1020.65 1019.68 1018.79 1018.07 1017.84 1017.23 1016.94 1016.21 1016.72 1017.67 1017.40 1016.92 1016.29 1013.62 1011.85 1010.11 1008.19 1008.33 1007.34 1007.27 1007.19 1006.81 1005.89 1005.15 1005.07 1004.44 1004.26 1003.56 1003.12 1002.93 1003.02 1002.96 1003.38 1003.66 1003.66 1003.86 1004.18 1004.03 1003.76 1003.46 1003.37 1003.18 1002.84 1002.81 1002.68
1025.68 1025.28 1024.86 1024.41 1023.92 1023.45 1022.80 1022.13 1021.31 1020.36 1019.27 1018.12 1017.18 1016.85 1015.84 1016.66 1017.71 1017.66 1017.21 1016.27 1015.66 1014.66 1013.90 1011.97 1010.85 1009.35 1008.90 1007.71 1006.84 1006.62 1005.91 1004.91 1003.97 1003.55 1003.96 1003.77 1002.72 1002.50 1002.72 1002.79 1003.51 1003.87 1004.07 1004.24 1004.16 1003.85 1003.53 1003.34 1003.24 1003.10 1002.94 1002.58 1002.28 1002.19
1025.33 1024.94 1024.54 1024.08 1023.62 1023.18 1022.65 1022.01 1021.25 1020.34 1018.91 1018.14 1017.97 1017.45 1017.34 1017.12 1016.53 1015.57 1014.64 1014.19 1013.55 1012.82 1012.08 1011.36 1010.68 1009.77 1008.80 1008.48 1007.40 1006.51 1005.23 1004.46 1003.65 1002.94 1003.34 1002.03 1002.03 1001.90 1003.12 1003.76 1004.19 1004.30 1004.37 1004.39 1004.40 1004.17 1003.82 1003.52 1003.20 1002.93 1002.66 1002.40 1002.25 1002.04
1025.01 1024.64 1024.26 1023.80 1023.41 1023.00 1022.53 1021.97 1021.45 1020.58 1020.38 1020.68 1020.70 1019.72 1018.31 1016.41 1015.06 1014.51 1013.40 1013.12 1012.55 1011.28 1011.20 1010.86 1010.39 1010.18 1009.28 1009.28 1008.17 1006.82 1005.73 1004.71 1003.50 1003.87 1003.25 1002.11 1001.93 1003.08 1003.68 1003.94 1004.16 1004.32 1004.41 1004.34 1004.19 1003.92 1003.59 1003.24 1002.98 1002.65 1002.32 1002.04 1001.88 1001.84
1024.66 1024.32 1023.95 1023.48 1023.14 1022.69 1022.18 1021.84 1021.42 1021.00 1020.41 1020.01 1020.04 1018.75 1017.16 1015.61 1014.67 1013.34 1012.31 1011.67 1011.43 1011.51 1011.35 1010.90 1010.19 1009.80 1009.49 1009.30 1008.15 1007.07 1005.72 1004.41 1004.18 1003.61 1002.63 1002.19 1003.19 1003.75 1004.06 1004.26 1004.32 1004.22 1004.24 1004.10 1003.83 1003.63 1003.38 1002.99 1002.68 1002.30 1001.87 1001.69 1001.46 1001.36
1024.33 1024.05 1023.64 1023.09 1022.73 1022.30 1022.05 1021.72 1021.34 1020.70 1020.42 1019.03 1018.15 1017.64 1015.88 1014.17 1013.31 1012.53 1012.26 1012.12 1011.88 1011.69 1011.31 1010.91 1010.41 1010.18 1009.44 1008.88 1008.07 1006.92 1005.22 1004.98 1004.19 1003.17 1002.48 1002.36 1003.62 1004.09 1004.39 1004.43 1004.42 1004.17 1004.08 1003.91 1003.66 1003.42 1003.12 1002.78 1002.37 1002.03 1001.61 1001.36 1001.13 1001.00
1023.96 1023.64 1023.13 1022.53 1022.20 1022.08 1021.82 1021.56 1021.24 1020.60 1020.53 1019.42 1018.42 1016.53 1014.65 1013.75 1013.62 1013.26 1012.79 1012.61 1012.16 1012.02 1011.60 1011.29 1010.59 1010.34 1009.52 1008.92 1008.73 1007.88 1006.23 1005.19 1004.39 1003.98 1003.62 1003.90 1004.50 1004.64 1004.73 1004.67 1004.51 1004.31 1004.09 1003.86 1003.57 1003.26 1002.99 1002.59 1002.11 1001.43 1001.12 1000.85 1000.77 1000.78
1023.66 1023.24 1022.18 1022.13 1022.05 1021.84 1021.58 1021.04 1020.63 1020.47 1020.21 1019.53 1018.43 1016.31 1014.72 1014.01 1012.97 1012.71 1012.49 1012.42 1012.55 1012.37 1012.22 1011.91 1011.59 1010.20 1009.01 1008.74 1008.29 1007.69 1007.23 1006.61 1007.35 1007.45 1006.45 1005.59 1005.19 1005.09 1004.96 1004.67 1004.54 1004.40 1004.17 1003.82 1003.52 1003.25 1002.93 1002.46 1002.03 1001.66 1001.16 1000.96 1000.82 1000.70
1023.42 1022.71 1022.04 1022.02 1021.89 1021.58 1021.28 1021.13 1020.63 1019.99 1019.53 1018.43 1016.80 1015.40 1014.82 1014.15 1013.46 1013.02 1012.92 1012.69 1012.77 1012.70 1011.75 1011.46 1010.70 1009.59 1009.66 1009.59 1008.94 1008.38 1008.49 1009.04 1008.88 1008.08 1007.18 1006.41 1005.96 1005.58 1005.16 1004.74 1004.42 1004.21 1004.01 1003.77 1003.55 1003.25 1002.85 1002.45 1001.99 1001.48 1001.16 1001.08 1000.80 1000.66
1022.71 1022.04 1021.92 1021.82 1021.67 1021.34 1021.09 1020.86 1020.24 1019.66 1018.48 1017.45 1016.35 1014.66 1014.20 1013.96 1013.48 1013.11 1012.88 1012.84 1012.90 1012.22 1011.89 1011.65 1011.73 1010.25 1009.34 1009.09 1008.41 1008.65 1008.87 1009.08 1009.25 1008.60 1007.72 1006.58 1006.02 1005.55 1005.06 1004.52 1004.35 1004.17 1003.86 1003.68 1003.51 1003.20 1002.76 1002.24 1001.67 1001.26 1001.36 1001.13 1001.01 1000.58
1021.98 1021.69 1021.60 1021.59 1021.53 1021.39 1020.79 1020.48 1020.37 1019.24 1017.71 1016.61 1015.60 1014.78 1014.09 1013.51 1013.15 1012.93 1012.72 1012.66 1012.65 1012.67 1012.53 1011.61 1010.78 1009.45 1009.11 1009.16 1008.96 1008.79 1009.04 1009.19 1008.71 1007.82 1007.09 1006.18 1005.84 1005.42 1005.06 1004.73 1004.31 1003.94 1003.71 1003.42 1003.10 1002.65 1002.51 1002.31 1001.96 1001.55 1001.16 1000.86 1000.42 1000.14
1021.54 1021.35 1021.29 1021.27 1021.32 1021.10 1020.43 1020.14 1020.14 1019.21 1017.44 1015.80 1015.23 1014.33 1013.61 1013.15 1012.66 1012.36 1012.01 1011.92 1012.17 1012.32 1011.82 1011.05 1009.85 1009.26 1009.28 1009.17 1008.99 1009.57 1009.57 1009.40 1009.10 1007.68 1006.62 1006.12 1005.68 1005.46 1004.94 1004.40 1003.92 1003.83 1003.30 1002.83 1002.49 1002.33 1001.92 1001.62 1001.19 1001.16 1000.97 1000.89 1000.68 1000.09
1021.28 1020.97 1021.02 1021.04 1021.06 1021.01 1020.57 1019.55 1018.89 1018.18 1017.09 1016.05 1014.90 1014.42 1013.39 1012.75 1011.85 1011.42 1011.03 1011.12 1011.63 1010.54 1009.73 1009.27 1009.32 1009.11 1009.04 1008.99 1009.03 1009.40 1009.32 1009.18 1008.32 1007.77 1006.99 1006.33 1005.41 1005.01 1004.64 1003.86 1003.49 1003.13 1002.78 1002.41 1001.96 1001.69 1001.74 1001.26 1001.11 1000.89 1000.71 1000.42 1000.05 999.98
1021.06 1020.96 1020.81 1020.96 1020.75 1020.58 1020.03 1019.23 1018.72 1017.95 1017.24 1015.37 1014.83 1014.21 1013.21 1012.29 1011.72 1011.71 1011.03 1010.78 1009.94 1009.13 1008.86 1008.66 1008.50 1008.62 1008.34 1008.35 1008.67 1008.43 1008.28 1007.77 1007.02 1006.33 1005.87 1005.61 1005.07 1004.30 1003.69 1003.46 1003.11 1002.64 1002.42 1002.27 1002.25 1001.87 1001.55 1001.25 1001.02 1000.82 1000.53 1000.15 1000.15 999.75
1021.08 1021.00 1020.79 1020.64 1020.20 1019.92 1019.12 1018.78 1018.18 1017.23 1016.60 1015.19 1014.22 1013.33 1012.17 1011.68 1011.16 1011.70 1011.19 1010.26 1009.66 1009.56 1009.50 1009.43 1009.03 1008.58 1007.97 1007.68 1007.47 1007.14 1006.86 1006.56 1006.01 1005.32 1004.86 1004.44 1004.08 1003.79 1003.45 1002.97 1002.68 1002.52 1002.30 1002.38 1002.63 1001.94 1001.59 1001.80 1001.29 1001.10 1000.43 1000.11 999.84 999.67
1020.92 1020.61 1020.29 1020.12 1019.88 1019.15 1018.61 1018.02 1017.80 1016.92 1015.93 1014.95 1013.64 1012.52 1011.84 1011.40 1011.26 1010.87 1010.78 1010.64 1010.37 1010.20 1009.80 1009.35 1008.70 1008.20 1007.40 1006.80 1006.69 1006.21 1005.77 1005.59 1005.12 1004.56 1004.29 1004.14 1003.51 1003.31 1003.18 1002.81 1002.59 1002.62 1002.98 1002.71 1002.17 1001.89 1001.51 1001.20 1001.36 1000.53 1000.23 1000.02 999.83 999.59
1021.02 1020.53 1020.26 1019.50 1019.15 1018.71 1017.85 1017.12 1016.48 1015.95 1015.11 1014.27 1013.19 1012.21 1011.40 1011.03 1011.08 1010.69 1011.25 1011.30 1010.84 1010.58 1010.21 1009.82 1009.34 1008.78 1008.25 1007.32 1006.78 1006.24 1005.56 1005.14 1004.75 1004.84 1004.51 1004.19 1003.85 1003.61 1003.10 1002.93 1002.88 1003.12 1003.02 1002.56 1002.47 1002.28 1001.78 1001.30 1000.84 1000.51 1000.40 1000.01 1000.04 1000.04
1020.17 1019.54 1019.18 1018.06 1017.97 1017.85 1017.03 1016.39 1015.78 1015.16 1014.33 1013.63 1012.71 1012.07 1011.30 1011.02 1010.83 1011.00 1011.79 1011.71 1011.39 1010.89 1010.49 1010.05 1009.60 1009.12 1008.57 1008.06 1007.44 1006.76 1006.38 1006.06 1005.54 1005.17 1005.33 1005.45 1004.97 1004.23 1003.71 1003.35 1003.02 1002.69 1003.09 1003.04 1002.76 1002.30 1001.91 1001.43 1001.04 1000.86 1000.42 1000.15 1000.18 1000.11
1019.15 1018.18 1017.67 1017.27 1017.21 1017.08 1016.52 1015.52 1014.95 1014.44 1013.75 1013.15 1013.13 1012.07 1011.47 1011.15 1011.34 1011.88 1011.92 1011.97 1011.73 1011.26 1010.74 1010.33 1009.80 1009.30 1008.88 1008.47 1008.03 1007.79 1007.29 1006.84 1006.28 1005.95 1005.70 1005.66 1005.16 1004.38 1004.09 1003.75 1003.49 1003.57 1003.47 1003.07 1002.76 1002.42 1002.10 1001.65 1001.19 1000.99 1000.81 1000.79 1000.54 1000.36
1018.33 1017.20 1016.63 1016.58 1016.45 1016.11 1015.71 1015.07 1014.20 1013.22 1012.80 1013.23 1013.07 1011.90 1011.40 1011.64 1011.87 1012.05 1012.55 1012.49 1011.97 1011.74 1011.17 1010.54 1010.16 1009.73 1009.00 1008.80 1008.51 1007.95 1007.40 1006.90 1006.41 1006.06 1005.99 1005.39 1004.51 1004.21 1004.21 1003.90 1003.73 1004.06 1003.72 1003.38 1003.68 1002.97 1002.63 1002.13 1001.87 1001.61 1001.47 1001.38 1001.48 1001.62
1017.53 1016.83 1016.44 1015.85 1015.66 1015.34 1014.72 1014.01 1013.16 1012.38 1012.57 1012.63 1012.52 1012.12 1011.51 1011.40 1012.02 1012.70 1012.63 1012.51 1012.39 1012.09 1011.25 1010.99 1010.37 1009.81 1009.01 1008.59 1007.94 1007.62 1007.36 1007.01 1006.64 1006.28 1005.85 1005.33 1004.82 1004.64 1004.38 1004.12 1003.68 1003.45 1003.43 1003.72 1004.57 1004.33 1004.22 1004.02 1003.67 1003.37 1003.11 1003.13 1003.04 1003.08
1016.11 1016.08 1015.72 1015.18 1014.71 1014.19 1013.35 1013.07 1012.53 1012.28 1012.31 1012.26 1012.33 1011.95 1011.52 1011.31 1012.17 1012.52 1012.56 1012.53 1012.53 1012.41 1012.02 1011.33 1010.55 1009.64 1008.86 1007.99 1007.72 1007.44 1007.36 1007.38 1007.27 1007.03 1006.76 1006.26 1005.64 1005.29 1005.04 1004.82 1004.59 1004.31 1004.12 1004.02 1004.49 1004.99 1005.00 1004.61 1004.83 1004.56 1004.52 1004.63 1004.69 1004.76
1015.47 1015.28 1015.20 1014.71 1013.93 1012.91 1012.44 1012.58 1012.46 1012.12 1011.86 1011.66 1011.50 1011.32 1011.19 1011.29 1012.03 1012.43 1012.54 1012.66 1012.59 1012.25 1011.82 1010.88 1009.54 1008.88 1008.62 1008.34 1008.24 1008.10 1007.88 1008.01 1007.96 1007.76 1007.75 1007.08 1006.19 1005.95 1005.69 1005.45 1005.25 1005.19 1005.17 1005.28 1005.63 1005.91 1005.91 1005.84 1005.80 1005.87 1005.96 1006.03 1006.21 1006.11
1014.98 1014.63 1014.10 1013.69 1013.14 1012.58 1012.38 1012.12 1011.76 1011.08 1010.68 1010.58 1010.60 1010.58 1010.84 1011.56 1011.92 1012.19 1012.46 1012.47 1012.27 1012.00 1011.64 1010.60 1009.75 1009.30 1009.24 1008.94 1008.68 1008.58 1009.43 1008.72 1008.93 1009.00 1008.69 1008.03 1007.07 1006.68 1006.42 1006.27 1006.11 1006.02 1005.97 1006.02 1006.16 1006.32 1006.45 1006.44 1006.49 1006.44 1006.45 1006.49 1006.47 1006.34
1013.96 1013.82 1013.67 1013.48 1012.91 1012.17 1011.57 1011.63 1010.84 1010.43 1010.31 1010.21 1010.16 1010.38 1011.19 1011.71 1011.86 1012.24 1012.16 1012.20 1012.14 1011.56 1010.88 1010.42 1010.03 1009.60 1009.55 1009.29 1009.20 1009.23 1009.45 1010.13 1010.42 1010.17 1009.85 1009.45 1008.95 1008.33 1007.68 1007.73 1007.62 1007.35 1006.96 1006.86 1006.97 1007.11 1007.15 1007.14 1007.09 1007.10 1007.09 1007.05 1006.99 1006.88
Wind_Speed
14 14 15 16 18 18 20 21 21 21 21 22 22 22 22 22 21 13 3 7 6 4 7 5 5 7 6 6 9 6 5 7 6 11 9 9 8 8 12 14 8 10 8 10 10 13 15 8 7 7 10 11 10 10
13 14 15 16 16 17 19 19 19 20 21 22 21 21 21 19 19 16 3 5 5 6 7 5 10 12 13 11 8 6 6 1 3 5 4 5 5 4 9 10 7 11 13 9 5 3 7 2 7 11 8 9 9 9
14 15 15 16 16 17 17 19 18 19 19 20 20 20 19 17 13 10 6 6 4 5 7 6 3 3 10 15 10 9 5 7 5 5 5 5 7 5 10 10 15 11 6 9 13 9 14 10 10 11 11 10 9 8
14 15 15 16 17 17 17 18 19 19 19 20 20 21 19 15 12 8 4 4 4 4 6 2 2 2 0 5 13 17 14 3 6 5 8 8 9 6 10 10 9 7 2 10 14 15 15 16 15 11 9 8 8 7
14 15 15 16 17 18 18 19 20 22 22 23 23 21 20 15 10 6 3 3 4 6 6 7 14 4 4 7 14 11 15 16 7 7 7 9 10 7 8 9 11 11 13 12 12 11 11 13 11 12 9 10 8 8
14 15 15 16 17 18 19 20 21 22 23 23 22 22 19 13 6 5 4 2 2 2 4 5 5 2 2 1 6 9 8 9 10 7 7 7 8 8 7 9 8 9 9 11 12 12 12 12 14 16 14 13 9 9
14 15 16 16 17 18 19 20 23 23 23 22 22 21 16 7 4 4 6 4 3 4 4 6 4 4 3 3 3 4 9 5 7 9 11 11 9 5 11 13 13 13 13 13 11 10 12 15 11 10 9 11 8 10
14 15 16 17 17 18 19 22 23 24 25 24 22 16 3 5 2 4 4 2 5 5 4 5 5 4 5 2 3 2 5 6 7 7 5 9 7 5 10 12 12 13 8 9 9 9 13 13 12 14 13 13 13 12
14 15 16 16 17 18 20 22 24 26 25 24 18 3 5 4 2 5 8 1 5 5 5 3 4 4 5 2 3 4 4 6 4 7 11 7 10 10 8 11 11 6 7 10 7 10 12 14 14 12 13 14 13 13
14 15 15 16 17 18 20 21 22 22 25 21 8 4 3 4 7 4 6 4 5 4 4 4 2 6 6 5 4 4 5 6 6 7 4 7 13 14 15 8 6 6 7 6 9 11 12 13 13 12 11 11 11 11
15 16 16 17 17 17 18 19 19 21 9 5 6 4 6 6 4 4 3 4 3 5 5 3 4 7 2 6 6 3 5 2 5 5 6 5 6 7 4 6 4 5 6 8 10 13 14 15 15 13 12 10 10 13
15 15 16 17 17 18 18 17 15 9 6 7 6 6 5 4 4 4 3 3 5 1 2 4 4 6 4 2 5 4 5 3 6 4 5 5 0 6 5 2 3 6 6 9 11 13 14 14 13 14 13 12 10 10
15 15 16 17 17 18 15 14 13 10 10 2 3 4 2 3 2 5 5 4 2 1 0 5 7 5 3 5 5 4 6 6 1 4 6 4 7 4 1 2 5 6 8 10 11 12 12 14 13 13 13 11 10 9
16 15 16 18 17 13 11 11 10 7 3 4 3 4 6 5 4 2 2 2 3 5 6 6 7 3 3 4 3 6 2 3 5 5 7 2 6 2 3 5 6 7 7 9 9 10 12 12 12 12 11 9 10 9
15 15 17 18 7 8 10 12 9 4 2 3 3 5 5 2 3 4 4 5 4 5 6 7 7 5 5 5 2 6 5 6 3 3 5 6 2 2 5 6 7 7 7 8 9 10 12 13 11 8 7 7 6 5
14 16 5 5 9 10 12 11 3 1 2 3 4 6 4 6 4 3 4 5 5 5 7 2 5 6 6 4 5 6 2 2 4 7 12 9 4 4 5 6 6 7 8 9 9 10 10 10 10 8 6 4 4 4
12 5 5 8 10 11 8 3 1 4 3 3 5 5 6 6 6 5 4 5 3 6 5 4 6 2 1 5 6 5 4 4 6 10 10 11 10 9 7 6 7 8 9 10 10 9 8 9 9 6 6 6 5 2
5 6 9 8 7 4 1 2 3 3 5 4 5 4 3 6 7 7 6 5 5 5 3 3 3 5 3 4 5 4 4 3 5 9 10 11 11 9 7 8 8 9 9 8 7 8 8 7 7 4 5 4 5 7
6 8 8 7 4 3 2 3 2 4 5 5 7 7 6 7 8 9 8 6 5 5 5 4 6 5 3 3 7 6 5 4 7 10 11 10 8 7 8 9 9 8 8 8 7 6 5 6 7 6 4 3 5 4
9 8 7 5 4 2 4 2 1 3 5 4 8 8 6 7 8 7 6 6 5 4 5 5 5 3 2 2 4 4 5 4 7 11 9 6 8 7 8 8 7 9 8 8 6 3 5 5 2 4 5 4 5 6
3 1 2 1 1 2 3 3 4 3 5 4 7 8 5 6 8 7 5 7 6 6 8 7 7 7 4 4 2 1 7 9 10 9 8 9 7 9 9 7 6 7 6 6 7 6 5 5 5 5 6 5 5 5
1 2 1 2 3 3 4 3 4 4 5 6 6 3 5 4 2 2 3 6 4 6 7 8 8 8 10 6 3 11 14 15 13 10 10 9 10 8 7 7 7 7 5 5 6 8 6 6 6 6 6 6 4 5
1 1 1 2 3 1 4 1 4 3 4 4 4 4 3 2 1 3 3 4 2 4 5 5 8 11 11 10 10 12 14 12 9 8 7 7 6 7 6 6 4 5 5 4 3 6 6 3 4 6 7 6 6 7
1 3 2 2 4 3 2 3 3 4 4 4 4 4 3 2 2 3 0 2 2 5 6 8 7 8 8 5 5 5 2 3 5 6 3 5 5 4 5 5 3 3 4 5 5 5 6 6 6 6 6 7 8 9
2 2 3 3 2 5 4 4 4 3 4 4 4 4 3 2 3 1 3 3 4 4 6 8 8 6 6 7 5 5 4 5 6 7 6 5 5 7 5 5 3 3 4 6 7 8 9 7 7 7 8 8 10 11
4 5 5 4 3 4 3 4 2 4 5 4 2 4 3 3 3 3 1 5 6 8 8 6 5 5 5 6 7 8 9 8 7 4 3 4 6 5 5 5 6 5 7 6 6 8 8 8 8 9 10 11 4 9
4 5 5 3 2 2 5 5 6 4 4 2 3 5 3 4 4 3 5 4 5 7 7 6 5 4 4 4 4 5 6 7 7 5 3 3 4 5 6 7 8 8 9 9 9 9 9 9 8 9 8 7 8 9
4 4 6 5 5 4 5 3 5 4 1 2 3 4 3 2 3 6 4 5 7 7 7 6 6 5 4 4 4 4 4 6 5 4 3 5 3 3 7 6 6 5 6 7 9 7 8 7 7 7 7 8 9 11
4 4 5 8 6 4 6 5 5 3 2 2 1 3 4 4 4 2 2 4 6 6 8 7 6 5 4 4 2 4 5 7 10 12 11 7 7 7 8 7 7 7 7 6 7 10 10 11 11 12 13 9 9 11
7 6 5 6 7 6 6 5 5 4 3 5 3 6 7 4 1 1 3 3 4 5 6 7 7 3 5 7 6 7 5 7 8 8 9 10 9 8 8 8 8 8 8 9 11 12 14 12 13 13 14 12 11 12
2 6 6 7 6 7 7 4 7 9 9 9 9 8 8 4 1 0 1 2 3 5 7 9 9 8 8 7 7 8 7 8 11 11 10 8 6 7 7 7 7 8 9 10 11 10 11 11 12 13 15 15 15 13
7 8 6 6 6 5 4 5 7 8 8 8 8 7 4 2 3 2 1 0 1 4 8 9 9 9 9 7 7 4 3 8 9 9 10 7 6 6 7 7 7 8 9 10 10 10 12 12 11 12 13 15 14 14
6 6 7 6 5 5 4 5 4 4 5 5 5 5 3 2 1 2 1 3 4 6 8 8 8 7 8 7 7 5 5 8 8 7 7 8 10 12 9 8 7 7 10 10 11 12 14 16 14 15 15 15 15 15
Wind_Direction
354 353 353 352 352 352 356 356 356 356 356 355 356 357 359 1 2 347 6 10 336 304 285 243 251 243 211 241 256 101 214 198 218 239 251 248 247 235 250 255 243 238 234 242 238 274 268 109 148 247 352 327 330 326
352 352 350 349 349 349 352 351 349 350 351 350 350 352 354 357 359 339 309 11 333 259 316 318 285 280 274 294 298 195 308 304 268 244 226 275 245 250 257 264 177 249 249 288 262 299 113 210 284 309 304 288 300 310
348 348 347 346 345 344 346 349 345 341 340 343 344 345 347 349 352 354 314 335 262 268 258 238 227 221 239 237 255 262 223 274 239 326 300 262 256 272 250 234 263 230 237 251 265 244 260 286 293 290 276 273 296 320
344 344 343 342 341 340 340 341 337 331 337 339 339 338 337 338 335 332 314 347 282 291 285 83 132 230 170 219 228 239 261 218 277 261 258 262 256 208 263 278 273 280 169 256 263 266 277 269 274 284 283 270 269 280
340 339 338 339 337 336 335 331 331 332 333 336 333 330 330 328 319 293 236 264 269 305 323 306 306 315 255 261 238 235 232 232 247 236 236 244 253 271 253 275 263 258 248 260 271 283 292 284 286 287 296 288 271 287
337 337 335 334 332 330 330 327 329 330 330 330 323 322 321 318 302 263 200 151 211 306 278 292 26 236 311 265 228 219 216 218 227 234 246 249 254 238 259 245 268 284 266 266 277 278 278 285 285 282 271 274 272 276
332 332 330 329 328 326 326 329 330 328 323 322 322 321 318 303 226 299 11 34 37 298 266 284 277 107 313 270 182 199 212 205 223 224 237 252 232 204 255 261 266 265 265 274 287 286 271 262 275 288 290 261 237 262
328 328 328 328 324 325 329 331 330 326 322 319 320 322 339 136 254 194 114 257 246 276 257 280 284 241 2 288 215 188 194 207 210 242 226 235 196 235 255 257 268 274 287 275 260 260 269 294 291 278 266 259 258 260
322 322 324 323 321 324 330 329 328 329 323 317 315 308 199 224 229 57 348 78 205 298 300 258 307 350 343 306 277 197 230 216 196 229 229 232 224 218 253 254 259 265 264 292 291 276 280 277 286 291 285 262 255 264
317 319 322 321 321 325 332 331 330 325 319 307 290 261 177 46 328 193 186 193 199 185 223 266 284 275 322 316 276 275 188 250 222 213 137 231 246 259 254 277 269 258 259 272 276 281 290 294 293 295 297 280 264 267
315 318 322 321 322 326 327 330 331 326 301 357 352 336 346 320 236 221 244 243 159 221 193 233 299 315 316 283 313 269 311 286 254 169 234 218 234 218 179 201 200 235 260 274 282 285 289 292 284 287 289 287 280 274
310 313 316 315 320 324 325 324 329 333 350 321 299 294 274 248 232 243 223 174 231 298 140 282 321 297 296 279 261 240 265 219 255 116 248 255 31 112 157 204 276 273 267 284 288 292 294 291 281 277 277 281 285 279
306 311 313 311 316 323 318 318 322 306 288 231 219 237 269 190 237 229 192 189 204 203 320 319 311 304 218 225 259 259 238 246 69 230 250 282 90 140 129 308 295 275 270 278 296 304 307 302 293 275 272 272 279 284
302 308 306 304 311 307 313 326 335 324 289 288 294 289 236 183 236 269 352 332 13 306 322 317 299 284 284 246 300 271 244 264 251 264 267 42 130 139 332 330 311 312 307 304 306 313 316 316 308 287 268 268 272 274
303 306 299 298 279 307 316 325 316 304 309 284 282 246 230 321 243 241 292 280 238 308 319 314 277 241 255 255 145 299 237 234 216 335 31 67 103 343 333 329 323 310 307 305 314 318 321 323 324 307 281 276 272 265
308 303 259 266 298 307 313 307 265 240 236 251 241 263 226 255 244 240 255 272 312 327 299 264 262 256 233 282 217 211 268 343 12 347 334 339 319 296 298 312 315 311 310 306 310 312 315 327 334 336 335 308 275 252
301 240 255 285 306 305 299 264 249 248 251 247 242 231 266 283 281 290 291 281 321 287 272 284 253 335 22 10 310 353 2 345 335 326 307 306 312 311 309 306 303 306 308 311 316 311 315 320 328 328 341 348 289 224
239 264 277 293 314 295 233 236 285 269 256 250 267 283 267 275 286 282 274 267 256 241 253 291 283 270 246 215 214 215 207 208 234 265 297 306 301 300 300 310 317 319 317 319 315 312 305 316 311 341 335 343 288 258
259 281 293 287 285 293 286 195 224 273 263 284 278 274 277 282 274 274 272 264 252 271 283 259 260 251 247 262 302 339 329 319 307 316 299 319 314 304 313 313 307 304 321 315 309 306 304 305 307 308 309 314 327 322
273 270 266 253 210 247 244 225 210 265 279 309 293 272 283 280 293 283 261 230 203 199 217 231 248 284 301 303 323 323 294 290 289 296 311 311 310 309 290 308 307 315 295 318 301 277 289 297 304 311 308 333 305 312
245 186 203 181 205 240 275 281 235 245 298 275 302 314 286 287 263 255 240 186 207 238 234 230 253 276 283 271 205 195 293 279 275 273 281 286 278 310 307 308 283 300 298 308 322 322 232 300 316 312 308 302 309 305
286 256 184 215 232 218 256 211 285 290 269 295 298 243 270 270 240 283 308 204 243 248 248 273 298 314 287 270 283 256 259 267 279 279 260 256 268 284 304 307 303 304 317 320 338 331 330 312 312 306 307 312 293 294
186 255 217 273 259 235 269 175 265 238 264 278 292 256 248 270 343 129 238 227 282 348 324 308 297 293 277 268 240 260 266 268 265 264 271 280 291 289 284 285 294 307 323 353 260 308 329 336 263 272 303 291 303 302
72 269 232 228 221 261 254 233 237 270 270 262 253 281 288 257 292 243 292 300 290 322 332 328 330 326 322 289 263 277 307 286 279 264 279 295 301 352 336 326 331 16 353 313 312 328 322 330 303 310 321 314 304 304
252 243 205 232 225 241 240 246 231 257 285 273 271 265 247 251 261 9 71 282 308 337 329 332 334 334 324 311 335 323 305 315 327 334 338 320 341 341 352 1 40 26 340 346 351 341 332 334 323 330 324 320 335 323
245 201 213 202 179 233 233 271 255 264 282 274 269 278 296 290 284 74 42 318 335 339 327 330 322 318 329 352 345 352 344 348 325 339 38 4 332 352 356 349 348 12 3 339 317 325 319 319 322 329 331 337 341 315
236 219 205 234 246 248 258 245 250 271 271 302 327 295 333 350 3 355 344 17 318 331 334 333 328 329 342 336 345 342 333 334 337 343 13 354 306 324 350 344 348 354 335 333 332 328 321 317 329 337 341 353 18 358
255 260 224 173 218 236 266 292 280 255 246 84 265 295 16 355 359 353 358 330 324 347 333 349 352 355 347 339 316 299 296 306 313 318 259 277 288 345 2 346 350 295 305 11 353 342 344 342 351 354 358 19 28 24
225 225 250 241 227 230 226 232 238 238 120 236 276 284 338 355 12 4 298 345 12 354 7 344 325 320 302 235 288 43 22 15 18 16 13 8 17 12 3 359 359 7 13 77 70 34 12 18 15 19 47 42 43 39
223 202 236 229 219 221 225 218 265 285 323 288 297 277 269 276 140 196 297 23 6 356 313 299 278 275 309 353 354 6 42 25 17 2 355 348 348 355 1 9 10 15 21 31 46 48 34 53 45 49 50 48 47 47
236 189 214 233 251 254 264 299 282 274 265 266 269 267 280 315 82 173 12 52 358 352 334 326 335 346 350 349 354 347 349 5 358 356 358 324 1 20 24 31 45 45 53 60 65 63 63 62 61 60 60 60 58 56
190 213 223 231 252 255 247 249 248 243 252 246 247 240 230 217 226 141 89 109 333 311 300 320 339 342 339 337 340 6 44 2 3 355 0 351 11 30 46 41 46 53 63 64 65 68 70 74 73 73 73 70 68 65
218 218 222 249 256 246 218 237 264 261 231 246 225 225 174 207 179 88 61 15 327 313 335 340 337 345 346 336 4 5 60 64 54 28 21 30 21 10 40 50 55 58 64 66 72 75 73 71 68 65 63 60 57 54